Ana Sayfa
METAR-TAF:

METAR-TAF

Havaalanları :

Altus, Oklahoma, Amerika Birleşik Devletleri

Enlem: 34-41-55N, Boylam: 099-20-17W, yükseklik: 437 m

Güncel hava durumu gözlemi

Rapor saat 14:55 UTC de 30 dakika önce yapıldı.
Rüzgar güney/güneybatıdan 14 kt ve 20 kt'a kadar ani rüzgarlar
Sıcaklık 32°C
Nem 52%
Basınç 1013 hPa
Görüş mesafesi: 16.1 km
Açık gökyüzü

METAR: KAXS 251455Z AUTO 20014G20KT 10SM CLR 32/21 A2990 RMK AO2

Saat: 10:25 (15:25 UTC)


TAF: eksik

4.000'den fazla havaalanı için hava durumu gözlemleri ve tahminleri (METAR ve TAF raporları).

Kullanılabilir istasyonlar harita üzerinde sarı ve kırmızı noktalarla gösterilir.

İstasyonun adını görmek için fareyi noktanın üzerinde gezdirin.

Sonrasında hava gözlem ve tahminlerini görmek için tıklayın.

Haritayı değiştirmek için: yaklaştırmak için siyah artı işaretli yeşil düğmeye ve uzaklaştırmak için de eksi işaretli düğmeye hızla tıklayın; bitişik haritalar için yeşil okları kullanın.


METAR-TAF: